Simultaneous Nadir Overpasses (SNOs) Predictions

Prediction of SNOs between TERRA and METOP-C Satellite Orbit:

Table of predicted SNOs for the next 14.0 days since TLE Epoch: 1/23/2022
Index Date (TERRA) Time (TERRA) Lat,Lon (TERRA) SZA (TERRA ) Date (METOP-C) Time (METOP-C) Lat,Lon (METOP-C) SZA (METOP-C ) Distance(km) Time Diff (sec)
1 01/23/2022 05:56:46 81.20, 133.64 102.56 01/23/2022 05:56:20 81.21, 133.76 102.57 2.29 26
2 01/23/2022 06:46:12 -81.22, -58.45 77.41 01/23/2022 06:46:59 -81.22, -58.27 77.37 3.17 47
3 01/26/2022 01:30:56 81.21,-159.71 101.90 01/26/2022 01:30:41 81.21,-159.61 101.90 1.54 15
4 01/26/2022 02:20:22 -81.23, 8.24 78.07 01/26/2022 02:21:21 -81.22, 8.06 78.08 3.26 59
5 01/28/2022 21:05:08 81.20, -93.48 101.12 01/28/2022 21:05:04 81.21, -93.40 101.14 1.69 4
6 01/28/2022 21:54:34 -81.22, 74.48 78.84 01/28/2022 21:55:44 -81.22, 74.35 78.83 2.21 70
7 01/31/2022 15:49:53 -81.20, 165.39 79.64 01/31/2022 15:48:47 -81.20, 165.36 79.67 0.86 66
8 01/31/2022 16:39:19 81.21, -26.96 100.36 01/31/2022 16:39:26 81.21, -26.83 100.38 2.38 7
9 02/03/2022 11:24:04 -81.21,-128.13 80.45 02/03/2022 11:23:09 -81.20,-128.02 80.47 1.85 55



Historial Predications of SNOs between TERRA and METOP-C
